Theta_e
334 334 335 334 334 335 334 335 334 333 333 332 331 330 330 330 330 328 328 327 327 327 327 326 325 327 324 325 324 324 324 326 325 325 324 324 323 322 320 318 315 314 316 315 314 313 312 313 313 315 317 316 315 317 315 314 314 315 313 310 310 310 309 308 305 305 309 312 311 309 309 310 309 309 308 307 310 311 312 308 308 308 309 311 312
331 332 333 334 335 335 335 336 335 333 334 333 333 332 333 333 334 335 330 327 326 325 325 325 326 326 324 323 324 324 325 324 325 325 323 323 324 323 322 321 319 318 316 314 314 314 315 313 311 312 314 313 314 312 312 313 312 311 310 309 307 308 310 308 306 306 305 309 310 311 308 311 307 309 308 308 307 311 308 308 309 308 308 308 308
333 333 333 335 336 337 335 335 335 335 335 335 336 335 338 337 336 332 333 335 329 325 324 325 325 324 324 325 324 324 324 323 325 326 324 323 322 323 323 322 321 320 320 317 314 314 313 314 314 314 316 313 313 312 312 311 311 309 309 309 308 308 308 308 308 306 306 307 310 309 309 309 308 309 311 311 310 309 308 308 307 308 309 308 308
334 332 334 334 334 334 334 336 337 336 333 336 336 338 339 336 334 333 331 333 327 330 328 326 326 325 324 323 323 323 323 324 325 325 324 323 323 322 323 323 322 322 320 319 318 317 315 313 313 314 314 312 312 313 313 312 312 312 310 309 310 309 308 308 309 308 307 306 308 308 309 309 310 311 313 314 312 309 308 308 309 309 309 310 309
333 332 333 334 337 336 334 337 337 335 335 336 336 337 337 336 335 331 331 330 330 329 328 327 326 327 329 324 322 322 323 323 323 323 325 325 324 323 323 322 322 322 321 321 322 319 318 318 316 314 314 312 312 311 311 312 312 311 309 308 307 309 310 311 308 308 308 308 309 311 312 312 315 316 316 313 313 312 311 311 311 309 308 309 311
336 335 336 335 336 338 335 334 335 335 335 335 335 335 335 334 333 333 330 329 330 330 328 327 325 324 324 324 323 321 322 323 323 323 323 324 325 324 323 323 323 322 322 322 321 320 319 319 319 319 316 314 313 312 311 310 311 312 311 309 308 308 308 308 311 310 309 308 309 310 312 312 314 315 317 317 316 313 311 311 312 313 310 308 310
335 334 335 333 334 334 336 336 336 335 335 335 335 334 333 332 331 330 330 330 330 330 329 328 327 325 325 325 325 324 322 322 323 323 323 323 323 323 323 323 323 323 322 322 323 322 321 320 320 320 319 317 316 314 313 313 313 312 313 312 310 309 309 310 310 310 310 309 310 311 311 314 314 314 317 318 317 316 314 312 311 314 314 314 313
334 334 337 334 334 333 335 337 337 336 336 336 335 335 334 333 332 332 331 330 329 329 328 328 329 327 325 325 325 325 326 325 325 324 326 325 323 322 322 323 323 322 322 323 323 322 322 322 321 321 321 321 320 319 317 315 315 314 316 316 316 314 312 312 314 314 315 313 311 311 313 313 314 316 318 317 315 315 316 314 312 312 313 315 315
334 332 332 334 335 336 338 339 340 340 337 337 337 334 334 333 333 331 331 330 330 328 329 330 328 328 327 326 327 327 330 327 326 325 323 322 322 321 322 322 322 321 322 322 322 322 322 322 321 321 322 325 324 323 323 323 321 319 320 321 320 319 318 318 317 317 316 316 315 316 314 314 315 315 315 315 314 314 316 317 314 313 313 313 314
332 332 332 333 334 333 334 337 335 338 337 335 334 333 333 332 331 331 330 331 329 329 330 333 329 328 328 328 326 327 327 328 327 318 312 317 319 320 321 321 320 320 320 320 321 321 321 321 321 323 323 322 321 317 314 315 319 321 321 321 321 320 319 319 318 318 317 316 316 316 314 315 316 317 317 318 319 319 318 317 314 314 313 313 314
332 331 330 331 332 333 333 333 333 333 331 332 332 332 331 331 332 331 331 331 332 330 332 328 328 331 328 326 325 325 325 326 317 307 306 308 319 320 320 320 321 320 319 319 319 320 320 321 321 323 323 322 319 314 311 310 310 311 313 317 321 321 320 319 319 318 317 317 318 317 316 314 316 317 318 319 319 317 316 316 316 314 312 311 310
330 330 330 331 331 330 331 331 331 330 329 329 330 330 331 331 330 331 331 331 331 331 330 329 330 329 329 328 329 329 328 323 311 308 307 306 309 316 318 320 321 321 321 320 319 319 319 320 321 322 322 322 321 322 317 311 308 307 307 308 308 310 313 319 320 319 319 318 318 317 316 316 317 318 318 318 318 318 317 317 317 316 314 312 313
328 329 330 330 330 330 330 330 330 330 330 331 331 331 331 330 329 328 329 330 331 329 329 328 327 329 329 327 327 327 329 316 308 307 306 306 303 310 319 320 320 321 322 323 321 320 319 319 320 321 321 322 322 321 322 321 312 307 308 308 308 306 303 302 307 318 320 319 317 318 319 319 318 318 319 318 319 317 316 317 317 314 314 313 313
325 326 327 327 329 329 329 329 329 330 330 330 330 328 328 328 330 331 329 330 328 327 329 327 327 327 328 328 327 327 328 321 309 307 306 303 301 303 317 319 319 320 321 322 322 321 321 320 320 320 321 322 321 322 321 321 321 319 316 314 314 314 309 304 303 303 308 314 316 316 318 320 319 319 320 320 317 315 315 315 315 312 313 312 311
324 325 325 325 326 327 328 328 328 329 329 329 329 328 328 330 328 328 329 328 328 328 328 327 328 328 328 327 327 325 326 309 304 303 303 303 302 302 314 317 318 319 321 322 323 323 323 323 322 322 322 322 323 315 315 316 317 319 321 320 319 318 318 317 316 314 312 311 311 313 315 318 318 318 318 317 319 319 318 317 316 315 311 309 309
323 323 323 324 325 325 326 326 327 327 328 328 328 328 328 328 327 329 329 329 328 328 328 327 326 325 326 326 325 325 311 294 296 296 297 297 300 315 317 318 318 319 321 322 323 323 322 321 320 320 322 323 318 302 305 312 316 316 317 319 321 321 321 321 312 311 317 318 317 315 316 317 312 315 313 312 315 317 313 313 312 310 309 306 304
321 322 322 323 323 324 324 324 325 325 326 326 325 326 326 326 327 327 326 326 325 325 322 321 323 322 320 320 322 320 309 299 294 295 294 293 303 318 320 320 320 320 321 322 322 322 322 322 323 323 323 321 305 296 297 309 316 316 317 316 317 319 320 323 312 309 306 304 302 302 301 301 301 300 299 298 305 310 311 308 307 308 306 304 304
320 321 321 322 322 323 323 323 323 323 324 323 324 325 326 326 325 326 324 322 320 321 320 319 319 319 317 315 315 316 311 304 295 294 294 293 301 312 318 318 318 319 319 320 320 321 323 320 315 313 313 314 299 295 296 308 313 315 316 316 316 316 318 320 322 320 309 302 301 301 299 296 296 298 299 300 301 309 309 305 307 306 304 303 301
318 318 318 320 321 322 322 322 322 322 321 322 323 323 324 324 326 326 324 322 321 320 320 319 318 317 316 313 314 313 312 307 296 294 294 294 298 305 310 314 315 317 318 319 321 320 321 316 309 301 299 298 292 294 295 306 312 314 315 315 315 315 316 315 315 315 315 315 313 312 308 308 310 308 303 299 301 308 309 309 309 306 303 302 301
317 318 318 319 319 319 320 320 321 320 320 322 323 323 324 324 323 322 321 319 319 318 317 315 314 314 315 314 312 311 312 310 300 294 295 295 295 303 309 311 311 312 314 315 316 315 313 312 308 296 292 293 292 292 293 293 304 312 314 313 312 313 313 313 312 313 310 309 309 308 307 308 309 309 308 307 306 306 306 308 308 307 304 303 302
317 316 316 316 316 316 317 317 318 319 318 319 323 323 323 323 322 320 319 319 319 318 317 316 315 314 314 314 314 312 311 310 306 295 295 295 295 301 308 307 307 307 310 312 311 308 308 305 305 299 293 293 293 293 294 295 298 306 305 305 305 304 304 312 309 311 308 307 306 305 305 305 305 305 305 304 304 304 305 304 306 307 305 303 302
316 315 315 313 315 316 317 318 318 318 318 318 318 320 322 321 322 320 320 319 318 318 317 316 316 316 315 314 315 314 312 309 310 300 295 296 295 296 305 306 304 310 311 309 308 306 305 304 302 298 293 294 293 294 294 295 296 302 298 294 295 297 308 310 309 308 306 304 304 303 303 302 302 302 303 302 303 303 304 304 304 305 305 305 304
315 315 315 314 315 315 316 318 317 317 316 316 316 315 318 320 320 324 322 319 318 317 316 317 317 317 315 315 314 314 313 310 304 306 297 296 296 296 295 300 297 311 309 307 306 306 306 305 304 299 293 294 294 294 294 296 300 297 294 296 297 298 304 306 305 305 304 303 302 301 301 302 301 301 301 301 302 302 302 302 303 304 304 304 304
316 315 316 315 316 315 313 314 315 317 316 315 313 314 313 315 320 321 321 321 319 316 316 315 316 316 314 314 314 313 315 313 306 303 303 296 296 296 296 296 296 306 308 307 307 305 304 303 300 294 294 295 295 295 295 296 297 295 296 297 299 301 306 305 304 304 303 301 300 300 300 301 301 300 300 301 301 302 302 303 303 303 302 302 303
316 316 315 315 315 315 315 312 312 313 316 315 312 310 310 312 311 312 315 319 319 316 317 315 316 315 314 311 313 313 314 315 313 305 300 296 295 295 295 296 297 300 307 307 307 305 297 293 295 297 296 297 298 300 300 299 296 296 297 299 306 307 306 305 305 304 302 301 301 300 299 299 300 300 301 301 301 301 301 301 302 302 302 303 302
314 314 315 319 317 315 315 316 312 314 313 313 315 312 310 308 308 309 310 310 311 312 315 311 313 312 315 312 311 311 313 314 314 312 306 305 300 294 296 297 301 302 305 306 300 296 295 297 299 300 300 300 306 305 305 304 299 299 299 302 306 305 305 305 305 303 302 302 301 300 300 300 299 300 300 300 300 300 299 300 300 301 300 300 300
312 312 314 313 316 319 318 313 318 313 317 315 313 311 310 309 308 307 307 308 309 309 309 309 309 309 309 313 314 309 310 311 311 311 312 313 312 310 303 306 300 299 306 308 302 305 307 306 305 300 300 295 299 302 303 304 305 306 305 305 305 304 304 304 303 303 302 301 301 302 302 301 300 300 301 301 300 300 300 300 299 300 300 299 299
312 311 312 312 311 312 314 314 314 318 315 317 317 317 313 309 308 308 307 307 306 306 308 307 308 309 308 306 307 310 309 309 309 307 308 307 307 308 310 311 310 311 310 310 311 312 310 304 302 304 307 306 307 308 307 307 306 305 305 305 304 304 305 307 306 303 302 302 301 300 300 302 302 302 302 301 301 301 301 300 300 301 300 300 298
313 313 313 309 310 308 313 315 311 313 314 316 316 313 311 309 310 307 310 310 308 306 307 307 306 308 309 305 306 307 307 307 308 296 299 293 295 300 304 305 303 304 300 290 298 305 308 310 309 309 309 307 306 307 305 306 305 304 307 306 305 305 305 304 304 303 304 304 303 303 303 303 303 303 302 303 303 302 302 301 302 301 303 301 299
311 313 310 311 309 307 309 313 309 309 311 316 308 308 298 294 301 308 308 298 288 292 296 307 306 304 308 311 311 308 306 307 296 290 292 292 291 291 292 292 292 294 294 291 297 302 305 307 309 308 309 308 306 306 307 307 306 305 306 302 305 307 306 305 305 305 306 305 304 304 304 303 303 303 303 303 304 303 302 299 302 303 302 300 300
308 308 308 308 306 309 308 311 311 309 310 312 311 304 306 308 291 288 294 295 291 288 286 288 285 288 300 309 306 292 296 295 292 293 292 292 292 292 292 292 292 292 292 298 303 304 306 307 307 306 305 306 305 305 304 305 304 305 306 306 306 304 301 305 305 304 304 304 305 304 303 303 303 303 302 299 298 300 302 302 302 303 301 301 299
310 308 308 308 306 307 307 310 312 310 310 312 309 312 304 302 305 295 286 290 289 287 287 287 287 289 289 294 303 309 296 292 292 292 291 291 292 292 292 292 292 292 291 293 298 299 303 304 304 304 304 304 304 303 305 305 304 304 305 305 305 305 305 305 306 306 304 304 305 302 303 304 300 297 296 296 294 295 300 301 301 300 299 298 299
312 310 310 310 308 306 305 309 311 311 310 308 309 307 305 307 303 300 303 290 288 291 291 291 289 289 290 289 288 295 295 293 291 291 291 292 291 292 292 291 292 291 291 297 301 301 305 305 304 307 305 306 304 304 304 305 305 305 306 305 303 304 305 307 305 308 304 304 303 304 301 299 298 296 292 294 296 297 297 296 298 299 298 297 295
311 309 311 311 309 307 307 310 309 309 310 313 309 306 305 307 305 307 302 299 303 297 292 290 290 291 291 291 290 289 289 290 291 292 292 292 292 292 292 294 294 293 294 302 304 304 305 306 302 304 305 304 304 304 305 304 302 303 302 301 304 306 307 309 307 305 303 302 303 298 297 298 297 297 297 298 298 297 298 295 297 295 294 294 293
308 305 303 302 312 310 311 308 306 305 305 307 307 306 306 303 304 303 303 302 300 298 299 300 295 291 296 295 292 291 291 291 291 292 292 292 293 292 292 299 300 301 298 299 301 305 305 303 302 305 305 305 306 305 304 304 303 302 303 303 303 305 305 305 303 303 301 301 302 299 298 296 300 296 297 297 297 297 298 295 296 294 294 294 293
309 307 308 307 307 310 311 309 306 304 304 304 306 305 306 302 301 302 302 302 302 302 301 300 301 295 292 293 294 293 292 291 291 292 292 292 293 292 297 299 300 301 300 305 308 305 302 302 301 302 303 304 304 306 304 306 305 304 303 302 302 301 302 301 300 301 303 301 300 300 298 299 298 299 300 299 297 295 295 298 298 298 297 296 295
307 307 307 307 309 312 311 308 306 305 298 300 302 302 303 303 302 304 303 303 304 303 304 304 302 304 298 299 300 293 292 292 292 292 293 294 293 295 298 299 300 300 297 300 300 299 300 300 301 301 302 302 302 302 302 302 303 305 303 304 303 303 302 302 302 299 301 298 300 301 301 301 301 302 302 296 293 296 298 295 296 293 293 292 290
309 307 306 308 309 311 310 307 304 297 301 301 302 302 301 303 304 303 302 303 303 300 302 301 301 300 298 300 306 303 300 293 294 295 295 295 293 297 299 300 301 300 299 300 300 301 300 300 302 301 300 301 301 301 300 301 300 301 300 300 301 301 297 300 298 304 303 301 300 299 295 297 299 298 293 295 294 295 294 294 296 295 294 291 292
308 301 296 296 299 307 305 303 303 302 301 301 300 300 299 300 301 301 301 302 300 302 302 303 303 303 308 303 302 304 302 301 299 297 297 298 300 304 304 303 301 301 300 300 301 299 299 299 299 299 299 299 299 299 299 300 300 299 299 299 299 299 300 299 299 299 297 298 298 298 296 295 296 297 294 294 293 294 296 296 297 295 294 292 294
307 307 302 293 301 301 301 301 302 302 300 301 301 301 301 302 301 301 301 301 303 302 302 302 303 304 303 300 302 301 299 300 298 297 296 296 298 301 303 300 299 298 298 299 301 299 298 298 299 298 298 298 298 298 298 298 300 298 298 298 297 296 298 298 296 295 295 296 295 295 294 294 293 294 296 296 294 297 296 295 292 295 296 295 294
308 308 300 295 298 303 302 302 302 302 303 302 302 301 300 299 298 299 302 302 301 299 300 302 305 303 298 295 293 295 298 298 297 297 297 296 299 300 302 301 297 297 298 299 297 297 298 298 298 297 297 297 298 298 297 297 298 297 297 296 297 294 296 298 298 295 296 294 294 293 293 293 292 291 292 292 294 295 294 293 293 294 293 293 294
308 307 306 304 301 301 301 301 302 302 302 303 302 301 302 301 302 301 300 299 299 299 299 300 303 300 294 291 292 293 299 299 298 297 299 300 299 297 297 298 298 300 300 298 298 299 299 297 297 297 297 297 297 297 296 297 297 296 296 296 296 296 293 294 296 296 295 293 293 293 292 292 292 292 292 294 293 294 294 294 296 295 295 294 294
306 306 306 305 305 305 303 304 304 304 303 303 302 297 299 305 304 300 299 297 298 298 299 299 299 304 295 290 291 288 297 298 294 301 300 296 296 296 298 298 299 302 299 299 298 299 298 298 298 297 297 297 298 297 296 296 296 296 296 296 296 296 296 294 294 293 293 292 292 291 293 292 292 292 291 291 294 292 293 295 295 296 294 296 293
306 306 305 306 305 304 302 304 303 303 303 300 299 301 299 303 300 299 299 299 299 299 300 301 302 300 299 295 292 294 297 301 301 298 296 296 298 298 297 298 300 298 298 298 298 299 298 298 298 298 299 298 298 299 297 297 296 295 295 296 293 293 295 294 293 293 292 291 292 291 292 291 291 291 291 291 292 291 291 293 293 292 293 293 295
307 306 305 305 306 304 304 304 303 304 298 300 301 300 300 300 299 298 298 298 298 301 301 298 297 297 296 299 300 299 299 297 297 296 296 297 297 297 299 300 301 299 299 299 299 299 299 298 299 299 299 297 297 297 296 296 297 296 296 297 295 293 292 293 293 294 294 294 291 291 290 290 291 291 291 291 291 291 290 291 291 289 290 291 292
306 306 304 304 304 301 300 303 300 303 302 301 301 301 300 300 299 298 297 299 301 300 300 299 299 297 297 300 300 296 297 298 297 296 296 297 296 297 298 299 301 300 300 301 300 299 298 297 298 298 297 298 297 296 295 296 296 297 296 294 292 291 291 292 294 294 293 292 291 291 290 289 292 291 290 291 291 291 292 294 293 291 291 290 291
307 306 305 304 304 302 296 301 302 301 302 301 302 300 300 300 300 298 297 299 297 298 296 301 301 299 299 296 296 296 298 297 297 298 298 297 297 298 299 299 297 300 301 301 300 299 298 298 298 298 298 299 298 298 296 295 295 294 290 290 289 289 288 290 292 292 290 290 291 291 291 290 290 290 291 291 291 291 289 290 290 291 291 290 289
307 304 305 302 304 303 302 301 300 296 300 300 300 299 299 300 300 298 298 300 296 296 296 297 301 298 296 295 295 297 297 297 296 297 297 298 297 297 298 298 297 298 299 299 300 299 298 298 298 298 297 298 297 297 297 296 296 292 288 287 287 287 286 287 290 289 288 289 291 292 292 291 291 291 291 293 293 291 289 289 289 289 289 289 289
306 305 304 304 302 304 304 303 300 300 300 302 299 301 299 302 299 300 298 298 298 298 298 296 296 297 296 296 295 297 296 294 297 298 296 296 297 298 296 297 298 297 298 299 298 299 299 297 297 295 296 297 298 297 297 296 294 290 288 287 285 282 283 284 286 286 285 289 289 290 291 292 292 292 292 292 291 290 289 289 288 288 288 289 289
305 304 304 301 299 304 302 301 301 302 304 303 304 303 299 299 298 298 298 298 302 299 300 298 298 298 299 297 295 295 295 294 295 296 296 295 294 295 295 296 297 298 296 296 297 298 297 297 296 297 297 298 297 297 296 295 292 289 288 286 282 282 283 283 283 283 285 287 288 289 290 291 292 292 292 290 290 290 288 287 287 287 288 288 288
303 303 302 303 303 303 303 302 302 302 302 301 303 303 303 299 297 297 299 299 297 297 297 297 296 295 294 295 293 294 294 294 294 294 294 294 295 294 294 297 296 296 296 298 297 296 296 296 296 296 296 296 295 296 295 294 291 289 284 282 282 283 283 283 285 283 283 284 288 289 289 291 291 290 290 288 287 288 286 287 287 287 287 287 287
Wind_Speed
1 4 3 10 10 8 8 9 10 8 8 8 7 7 6 5 5 8 8 7 7 6 5 5 6 4 5 5 7 7 6 5 6 6 5 6 6 4 5 6 6 4 4 5 5 5 5 5 6 6 5 5 5 5 6 6 5 6 5 6 6 5 6 6 7 8 5 4 6 7 8 8 7 4 5 4 4 8 8 6 7 6 7 7 8
1 5 8 11 9 7 8 8 9 7 7 8 6 6 5 5 4 3 5 8 8 7 7 7 6 7 8 7 6 6 6 7 7 7 7 5 5 7 6 6 6 5 5 6 5 6 4 5 6 5 6 8 6 7 6 6 7 6 6 7 7 7 5 6 6 6 9 4 6 6 6 6 8 6 7 5 5 7 9 7 6 6 7 7 7
8 11 11 11 9 6 7 6 3 6 7 5 3 4 2 1 2 3 3 2 4 7 8 8 7 7 7 7 7 6 6 5 5 6 7 8 8 6 6 6 5 5 5 6 7 6 6 6 6 5 4 4 5 6 6 6 6 7 8 7 8 8 8 7 5 6 7 7 5 7 6 6 6 6 7 7 6 7 8 9 9 8 8 8 8
2 5 8 7 6 2 5 6 3 4 4 3 4 3 2 2 2 3 3 3 5 4 6 7 5 6 8 7 7 8 7 7 6 5 7 8 8 8 7 6 7 6 7 7 7 6 7 7 7 7 6 6 5 5 6 6 7 6 6 5 5 7 8 6 6 6 7 8 5 6 5 6 7 9 9 8 7 5 7 8 10 10 8 7 10
10 10 10 8 7 6 4 2 2 3 4 3 3 2 2 2 2 4 4 5 5 5 4 5 6 4 2 5 8 8 9 9 9 7 6 5 6 7 7 7 7 7 8 8 8 7 6 6 6 7 7 7 6 6 5 6 7 7 8 7 7 5 4 5 7 7 6 7 6 5 6 8 7 7 6 6 8 9 8 8 7 8 9 10 8
4 5 4 4 4 3 5 7 5 4 4 4 5 4 4 4 4 4 7 7 6 4 5 6 5 7 7 7 10 9 8 9 10 9 8 6 6 6 6 6 7 7 6 7 9 9 8 7 7 7 7 9 8 8 7 7 7 7 7 6 7 6 7 7 5 6 7 7 6 6 5 7 7 7 8 8 6 6 6 7 8 8 7 7 8
1 1 1 1 3 3 4 4 4 4 4 4 4 4 4 5 7 9 8 7 7 5 6 8 7 8 7 7 10 10 8 7 7 8 8 7 6 7 7 8 8 7 7 9 7 7 7 8 8 8 8 7 8 9 8 8 8 8 7 6 6 6 7 6 6 6 7 7 8 8 7 6 7 8 8 7 9 8 7 5 7 7 6 4 5
1 2 2 1 2 3 3 3 2 4 4 3 3 3 3 4 5 5 6 8 9 9 9 9 3 6 8 8 9 8 3 5 7 9 8 7 7 8 7 7 7 7 7 8 8 8 7 8 8 7 8 8 8 8 9 9 8 8 8 7 6 6 7 7 7 7 7 5 7 8 7 7 7 8 7 7 8 8 8 8 8 7 7 6 6
1 1 2 3 3 3 3 2 2 1 1 1 1 2 2 4 4 5 5 6 6 9 9 5 3 7 9 9 7 7 5 3 2 2 4 7 9 12 10 8 6 6 5 6 6 7 9 9 9 9 10 12 11 9 10 9 7 7 7 6 7 7 8 7 7 7 7 8 8 6 6 7 7 7 7 8 8 10 8 6 7 6 6 5 5
6 4 3 2 2 3 3 2 1 1 1 2 2 3 3 6 5 5 5 4 6 7 6 0 3 7 7 1 2 5 6 3 1 3 2 1 4 6 8 7 6 5 6 7 7 7 8 8 10 15 15 15 15 14 12 13 13 10 8 7 8 8 9 9 9 8 8 9 9 8 7 10 7 7 7 5 9 8 10 8 7 6 5 7 7
7 7 7 8 6 4 4 5 4 6 6 4 1 4 6 6 3 4 5 4 3 5 2 6 3 4 4 4 5 5 5 4 4 8 6 8 5 7 6 7 8 7 7 6 6 7 7 10 10 13 15 15 14 16 15 16 16 16 17 16 13 11 9 10 10 9 9 10 8 8 9 10 11 10 9 9 6 6 9 9 10 6 6 7 9
7 7 8 7 9 9 8 9 8 6 4 5 5 4 5 5 4 3 2 4 5 5 5 6 4 3 3 3 2 2 4 2 4 12 10 9 6 4 5 6 6 7 6 5 5 5 6 7 7 9 8 9 11 11 14 17 18 18 19 18 18 19 17 12 10 10 10 11 9 9 9 11 11 9 9 8 9 10 11 11 10 10 7 4 6
8 8 7 7 7 7 7 7 6 6 5 3 2 2 2 4 5 4 4 3 3 5 4 4 5 4 2 1 4 4 4 7 12 10 9 7 6 4 4 5 6 7 7 8 7 7 6 6 7 7 9 13 10 8 7 7 13 19 19 19 19 20 19 20 19 16 12 10 9 12 13 11 11 11 10 11 10 11 7 7 8 6 5 7 7
9 9 10 9 9 9 8 8 7 6 5 5 5 6 7 5 3 3 2 2 3 1 4 5 5 5 3 2 4 4 3 4 3 4 4 5 5 3 3 5 6 7 8 8 8 7 7 7 8 9 10 10 8 8 9 9 8 7 9 10 11 15 17 19 20 22 19 14 14 15 13 10 10 9 8 6 8 9 7 6 4 3 4 5 1
9 8 9 9 9 9 9 9 8 7 7 6 4 4 4 4 5 4 3 3 3 3 3 4 4 4 4 3 3 3 4 12 9 7 6 6 6 3 2 3 5 6 7 7 7 7 6 6 6 7 8 9 8 7 7 7 7 7 6 7 9 11 13 13 12 11 13 13 14 13 13 11 14 16 14 6 7 9 8 10 8 4 1 4 3
9 9 9 9 10 9 9 8 8 9 8 7 6 6 6 6 5 6 5 4 4 5 5 6 7 7 7 6 4 4 10 17 14 14 12 11 5 3 2 3 5 5 7 7 5 5 5 7 9 10 10 10 8 10 6 3 5 7 9 9 7 6 7 8 13 9 5 4 6 11 12 13 14 16 11 9 11 4 1 3 3 3 2 1 1
10 9 9 10 10 9 9 9 8 9 9 9 8 7 7 8 7 6 6 7 7 8 8 7 7 8 8 7 6 7 8 13 14 13 12 14 8 3 4 3 4 6 6 6 5 6 6 7 7 7 6 4 8 10 9 7 5 6 6 7 7 6 5 5 10 18 13 13 11 12 9 6 3 2 3 8 5 3 2 1 0 2 0 4 0
10 10 9 9 9 9 10 9 9 8 8 9 8 7 7 7 8 7 8 8 9 7 7 7 7 7 8 9 8 6 7 11 14 11 11 11 8 6 5 5 5 6 6 7 6 4 7 5 8 5 5 4 8 7 6 4 4 4 5 6 7 7 6 1 1 5 7 5 2 6 6 6 6 5 5 5 4 2 4 5 3 4 3 4 4
9 10 10 10 10 10 9 10 9 8 9 8 7 7 7 6 5 6 6 6 6 5 6 6 6 6 8 9 12 9 7 7 13 12 12 12 8 4 4 5 7 6 6 6 4 5 3 8 11 11 8 9 12 11 10 6 4 4 5 5 5 6 2 1 1 1 4 3 5 5 4 5 3 4 4 3 2 2 2 2 2 4 4 3 2
9 9 9 8 8 9 8 8 8 8 7 5 5 5 4 5 6 6 6 5 5 6 7 7 8 6 6 7 7 8 7 5 9 12 12 12 12 6 5 5 6 7 7 7 7 8 8 7 9 14 13 12 11 10 9 9 6 6 5 4 5 6 4 4 2 1 4 5 4 5 5 5 5 4 4 4 4 4 4 4 2 2 3 3 3
9 9 8 9 9 10 8 8 7 7 7 7 4 4 4 5 5 5 5 5 4 5 5 4 5 5 5 6 7 6 6 6 8 13 13 13 15 11 7 7 6 5 5 6 6 6 7 7 5 11 12 12 11 10 10 10 8 5 7 6 4 5 8 2 2 4 3 4 5 5 5 5 4 4 5 5 6 5 5 5 6 5 4 3 3
8 8 9 9 9 8 7 6 6 6 6 6 8 5 4 5 5 5 3 4 5 4 4 4 3 3 4 5 5 6 7 9 5 9 11 12 12 13 7 7 6 3 7 6 6 6 6 5 5 8 10 10 11 12 11 11 11 7 7 7 9 10 6 5 5 5 5 4 5 5 5 5 5 6 6 6 6 5 5 5 5 5 5 4 3
8 8 8 8 7 7 6 6 5 5 6 7 7 8 7 4 4 2 3 3 4 4 4 2 2 2 3 4 4 5 5 5 6 5 7 10 11 11 10 8 12 7 6 7 7 5 4 5 5 9 9 9 10 11 11 11 9 7 10 12 12 12 9 6 5 5 5 5 6 6 6 5 5 5 5 5 5 5 5 5 4 4 3 3 2
6 6 6 7 5 5 6 6 6 4 5 5 7 7 8 8 3 2 2 2 1 4 3 3 2 1 2 3 4 4 3 4 3 3 4 6 9 9 9 11 10 6 6 5 4 4 4 4 5 7 7 8 7 7 10 10 8 10 11 11 11 8 6 6 5 5 5 5 6 5 5 5 4 4 4 4 4 4 5 4 3 3 2 1 1
5 5 5 5 5 5 4 5 5 6 5 4 5 6 7 7 7 8 6 3 2 2 2 2 2 2 3 3 3 3 3 3 4 3 4 2 4 7 8 8 10 8 5 4 2 1 2 4 4 3 6 7 7 8 9 10 12 12 12 11 9 6 6 5 5 5 6 5 4 3 4 5 5 4 3 3 3 2 2 3 3 3 2 2 1
5 5 4 2 2 3 5 3 4 3 5 4 3 4 5 6 7 7 7 8 8 6 1 1 1 3 2 4 3 3 3 2 3 3 4 3 2 2 2 8 7 7 6 1 2 5 4 5 2 2 4 4 4 4 3 3 4 5 8 8 5 5 5 5 5 5 5 5 5 5 4 3 3 4 3 2 1 3 2 1 1 1 1 2 2
4 4 3 4 3 2 2 4 0 4 2 2 3 3 3 4 5 6 6 6 6 7 8 8 8 8 5 3 2 5 3 4 3 3 3 2 2 1 4 3 4 3 4 3 4 3 2 3 1 1 2 3 4 4 2 0 2 3 3 3 3 2 3 4 4 4 4 3 3 2 1 1 1 2 1 1 2 2 2 1 3 3 2 2 3
2 3 4 4 4 5 3 4 5 1 4 1 1 1 2 3 3 4 3 4 5 5 6 7 6 6 6 6 7 4 4 6 4 5 5 5 5 6 6 4 1 1 2 4 4 3 3 3 5 5 4 4 4 3 2 1 1 1 1 0 2 1 3 4 4 3 2 1 2 2 2 2 2 2 2 3 3 3 3 3 2 3 4 3 1
2 2 2 4 4 6 4 2 4 4 3 4 2 4 3 2 5 3 2 3 3 2 3 4 4 4 5 5 6 6 6 5 4 1 3 2 3 5 5 5 6 6 4 7 8 8 6 6 7 7 6 5 5 2 2 3 3 2 2 0 1 2 1 1 0 1 2 1 3 3 2 4 5 4 3 4 4 4 4 3 3 3 4 5 5
5 2 3 3 3 4 5 3 4 4 4 2 4 3 4 5 4 2 3 1 2 5 4 2 1 2 4 3 3 3 2 3 2 4 5 4 5 6 8 8 9 7 8 11 4 6 8 6 5 2 1 0 1 1 3 3 3 4 4 2 2 0 0 1 2 1 2 2 2 2 2 2 3 4 4 5 6 5 5 6 4 4 4 5 5
4 4 4 4 5 5 5 3 3 4 4 4 3 4 3 4 8 8 8 3 1 2 4 3 2 3 3 1 0 3 0 1 5 7 7 8 9 9 9 10 9 9 6 6 6 5 8 7 4 4 5 5 4 4 5 5 5 5 5 6 5 4 3 3 2 2 2 3 3 3 3 4 4 4 2 2 2 1 5 5 5 5 5 5 5
3 3 3 3 5 6 6 4 3 3 3 2 4 1 5 3 1 2 2 2 1 2 3 5 6 5 6 5 2 1 4 6 7 6 7 8 10 10 11 11 11 7 5 4 2 6 5 8 5 5 4 4 4 3 2 2 4 5 6 6 5 6 5 3 3 3 4 3 3 2 2 5 1 1 0 2 1 3 4 5 5 6 6 4 4
2 4 3 1 3 5 6 4 3 2 3 4 3 3 4 1 5 4 3 2 5 6 6 7 6 8 8 7 8 5 5 6 8 9 8 9 10 12 12 12 11 6 4 3 5 8 7 9 7 2 2 1 2 1 2 3 1 0 0 3 6 4 4 3 6 5 4 5 4 5 4 0 1 4 6 5 3 1 2 4 3 1 1 3 3
4 4 3 2 2 4 4 3 4 4 3 2 2 3 4 3 3 1 5 3 3 4 6 8 9 8 10 10 9 7 7 7 9 10 11 10 10 12 8 9 14 9 11 7 6 7 8 9 5 3 2 3 2 2 2 3 3 3 2 3 1 5 5 6 3 5 6 5 5 5 4 4 2 2 0 2 2 3 3 2 1 4 3 4 5
5 4 6 6 2 3 3 4 4 6 6 5 4 3 3 6 6 4 5 4 7 7 6 6 8 9 9 8 10 10 8 8 8 9 11 13 14 13 9 8 9 5 5 7 7 5 6 9 5 2 1 3 3 3 3 5 5 6 5 2 3 2 5 5 4 0 2 4 3 4 3 1 3 4 5 3 2 0 2 5 2 4 3 2 2
4 5 3 6 6 2 2 2 4 5 5 6 6 4 3 4 6 7 6 5 5 5 7 7 6 8 14 15 14 10 9 8 8 9 12 13 15 6 6 8 8 5 5 1 2 3 5 4 4 5 5 5 4 3 3 2 2 3 4 6 4 6 3 3 3 2 3 3 4 3 2 3 6 3 1 4 3 3 4 3 0 2 1 0 1
5 5 5 5 4 1 1 3 4 4 5 6 6 7 6 6 6 7 6 6 4 4 3 5 6 3 5 9 11 9 9 7 9 11 13 14 15 8 6 7 6 4 4 4 5 5 6 5 5 6 6 6 6 7 6 5 4 2 2 2 2 2 2 2 2 1 1 4 4 1 2 3 2 2 1 0 2 3 1 3 6 1 1 2 2
5 6 6 5 4 3 3 3 3 5 6 6 7 7 7 8 7 6 5 4 3 4 4 5 5 8 9 7 4 3 5 8 5 7 7 8 8 7 8 5 3 4 4 4 4 5 5 5 5 6 6 6 6 7 6 6 5 6 6 7 7 6 4 2 2 2 0 3 6 6 5 5 5 6 5 3 1 1 1 2 2 2 2 2 2
6 9 12 12 9 6 4 3 3 4 5 6 7 7 7 7 6 6 6 6 6 6 5 5 5 4 1 4 4 1 1 3 3 4 6 8 7 3 2 3 3 3 4 4 4 4 4 5 5 5 6 6 6 6 6 5 6 6 7 6 6 5 5 5 7 9 8 6 4 4 7 7 8 6 5 5 6 7 5 2 1 3 3 2 1
7 8 8 12 5 5 5 6 4 4 6 7 7 6 5 5 6 5 6 7 5 5 3 3 3 3 4 5 2 3 4 3 2 3 5 7 8 3 3 3 4 4 5 5 3 4 5 5 5 5 6 6 6 6 6 6 6 6 6 5 5 5 6 7 7 5 4 6 6 7 6 6 5 5 6 5 4 5 4 5 4 2 1 1 3
8 8 3 8 10 8 8 7 5 6 6 5 3 4 6 7 7 7 6 5 6 8 6 3 2 3 7 7 7 5 3 3 3 3 5 6 4 3 2 3 4 5 5 3 5 5 4 4 5 5 5 5 6 6 6 6 6 6 6 6 5 6 6 6 6 6 7 6 6 6 6 5 5 5 6 5 6 5 4 4 4 5 4 3 3
7 8 7 6 9 7 7 8 7 6 5 6 7 5 5 7 5 3 4 6 5 4 4 4 3 3 7 10 8 9 3 2 3 3 4 3 3 4 4 3 3 3 3 4 4 4 3 5 4 4 4 5 5 5 5 5 5 5 5 4 5 6 5 5 6 8 7 6 6 6 6 6 7 6 5 6 5 5 5 4 5 5 5 4 4
9 9 9 7 6 6 7 8 8 9 8 6 6 6 5 2 2 3 6 6 6 5 4 3 4 1 4 6 7 7 3 3 3 2 2 3 4 4 3 3 3 3 4 4 4 3 4 4 3 3 4 4 4 4 5 5 5 5 5 5 5 4 5 6 6 6 6 6 6 7 7 6 6 6 6 6 6 5 5 5 4 4 5 5 5
7 6 5 3 5 6 6 7 9 9 8 3 2 1 0 1 2 4 5 6 6 5 3 2 2 2 2 5 4 3 3 2 2 3 3 3 3 3 3 4 3 4 4 4 4 4 4 4 3 3 3 4 4 4 4 4 4 5 5 6 4 7 7 7 7 7 6 6 6 6 6 7 8 7 7 7 6 6 6 7 7 6 5 4 6
7 8 8 9 8 8 8 8 7 8 6 6 5 6 5 4 4 6 7 7 6 2 1 2 3 3 3 2 2 2 2 3 2 2 3 3 3 4 4 3 2 4 3 3 4 3 4 3 3 3 3 3 4 4 4 5 4 5 4 6 7 6 6 6 6 6 6 6 6 7 7 7 7 6 7 6 6 7 7 7 6 6 5 4 4
7 9 10 10 9 7 6 7 8 8 9 8 7 7 6 5 7 8 9 7 2 2 1 1 2 3 3 2 2 2 2 2 3 2 2 2 3 3 3 3 2 3 3 2 2 3 3 4 3 2 3 3 3 3 4 4 5 4 8 6 7 6 4 4 5 6 8 8 7 6 6 6 7 6 9 8 6 4 4 5 6 5 5 5 6
8 7 8 8 9 8 5 9 10 10 9 9 6 5 4 5 6 6 4 3 3 4 4 1 2 2 2 3 3 3 2 2 2 2 2 3 3 3 3 3 4 3 0 1 3 2 3 3 2 3 3 2 2 3 4 3 4 6 6 6 4 5 4 3 5 7 6 7 7 7 6 5 6 6 8 5 5 5 4 4 4 7 8 6 5
8 8 10 8 10 11 10 8 11 11 10 9 6 5 5 2 2 4 4 1 5 3 3 2 1 1 3 4 4 2 2 2 3 2 2 2 3 3 3 3 3 3 2 1 1 2 3 3 3 3 3 1 1 2 3 3 3 7 5 5 3 3 4 5 4 5 5 5 6 8 8 8 7 7 7 6 5 6 6 4 6 5 7 6 6
9 9 9 11 9 8 7 9 9 10 10 7 9 9 3 2 2 4 8 6 4 3 4 3 4 3 3 5 3 2 3 3 2 2 2 2 2 3 3 3 3 3 2 2 2 2 2 3 3 4 4 3 2 2 1 3 2 6 4 3 3 6 7 8 6 4 5 4 6 7 8 8 8 7 8 8 7 6 6 7 5 7 6 6 6
9 9 8 7 6 6 6 7 10 9 1 3 5 3 5 6 5 7 9 6 1 2 1 2 1 1 1 2 4 4 3 4 3 2 2 3 3 3 3 3 3 2 3 3 3 2 2 3 4 5 3 3 3 2 3 1 5 5 5 4 4 6 8 8 9 8 6 4 5 6 8 8 7 7 7 6 7 6 7 6 5 6 7 8 7
10 9 10 10 9 8 8 9 9 10 9 9 6 0 2 5 8 6 3 2 2 3 3 4 5 6 6 4 4 5 5 5 4 3 3 3 3 3 4 2 3 3 3 3 2 3 3 3 3 3 3 3 4 3 3 3 5 5 7 7 7 8 7 7 5 6 8 6 5 6 8 7 6 7 7 6 8 7 8 7 6 5 5 5 7
Wind_Direction
89 41 303 263 247 226 219 206 210 213 222 212 213 207 211 220 195 187 188 193 198 208 210 211 213 217 235 225 215 208 214 206 190 199 196 184 191 194 204 213 228 227 209 227 231 229 231 230 226 223 219 220 223 217 221 233 232 227 231 240 243 233 222 228 245 263 277 264 273 278 284 291 291 286 268 233 171 201 218 216 209 208 202 202 206
319 210 233 246 236 231 236 208 208 214 218 225 217 210 218 203 211 212 192 194 195 200 208 211 210 213 217 229 236 233 209 205 203 197 194 196 192 197 211 221 227 222 201 209 221 236 234 231 236 238 216 218 213 225 223 215 227 232 222 220 234 248 229 220 228 231 259 273 266 267 272 250 254 251 259 249 225 180 213 228 230 214 214 205 212
184 214 230 236 234 225 252 256 254 222 230 244 253 265 284 241 225 257 267 214 200 204 216 220 207 208 218 212 227 244 244 229 215 199 193 195 209 217 216 217 219 225 222 215 220 214 222 224 227 234 248 240 217 219 225 234 228 226 229 215 218 222 229 225 217 233 241 252 237 255 255 266 261 247 240 247 231 202 202 212 218 225 226 213 216
200 236 247 264 283 302 272 283 316 354 293 228 234 250 281 322 358 313 278 263 247 235 239 244 226 205 213 218 217 218 229 241 234 220 212 204 204 216 223 219 218 220 229 244 251 232 216 216 216 213 216 239 248 231 222 227 245 264 268 258 231 219 217 226 218 212 226 244 245 250 253 240 246 245 245 249 253 234 224 227 223 227 231 216 212
175 195 221 232 229 195 207 247 173 199 231 272 272 255 254 263 249 259 274 266 262 266 267 244 262 275 255 238 230 226 222 223 230 229 225 221 222 219 219 224 227 226 223 226 234 241 237 224 219 207 202 212 226 239 235 233 233 238 247 254 261 268 265 228 227 222 225 230 243 238 246 264 275 280 264 242 228 233 238 240 240 233 224 227 231
178 182 181 219 229 188 159 200 201 217 237 229 239 261 275 272 261 246 247 256 257 255 266 272 251 255 253 254 260 247 227 218 218 220 223 220 216 224 230 229 232 243 249 232 230 229 239 239 230 222 204 204 211 217 228 238 240 239 241 241 244 249 253 260 248 234 228 233 227 247 236 242 256 259 269 272 270 253 241 232 234 237 228 227 225
94 229 277 289 263 227 205 202 199 222 220 219 198 209 244 258 265 265 257 246 248 252 266 260 241 233 241 254 261 261 247 231 224 218 218 230 231 224 218 225 228 233 245 259 267 269 257 242 234 229 229 214 207 210 214 223 231 240 241 239 241 243 252 253 255 250 233 235 238 237 248 244 238 253 253 256 261 255 248 250 256 255 254 228 245
11 282 201 194 286 271 269 289 238 204 209 226 218 217 232 250 248 259 263 267 261 253 245 253 280 297 276 264 261 260 300 21 20 8 12 311 274 247 231 223 223 220 228 238 249 254 261 272 272 254 237 228 222 213 204 216 216 225 228 233 237 238 241 247 250 257 262 251 237 239 233 244 246 248 255 257 261 257 248 242 242 242 242 240 239
3 55 7 313 309 311 308 273 258 220 206 237 297 283 268 251 240 237 236 244 254 271 272 265 269 266 273 281 312 328 24 56 64 18 3 341 309 296 272 250 234 223 221 232 236 240 252 259 271 277 274 274 255 229 223 211 201 213 221 220 232 240 245 248 250 248 249 254 266 263 253 247 245 246 246 241 241 247 254 246 247 236 239 251 256
4 17 347 354 345 330 316 297 258 278 346 351 341 318 305 279 262 257 257 269 281 267 268 3 242 246 259 42 22 340 331 8 324 19 46 227 274 291 303 280 257 244 233 238 245 250 255 256 256 261 258 257 261 256 246 237 225 220 219 219 224 230 237 240 242 243 249 252 248 255 272 265 265 262 261 262 267 300 292 276 266 248 252 253 255
34 14 15 358 0 344 358 355 351 30 29 12 292 225 230 225 254 289 294 289 282 293 304 280 269 153 233 252 267 247 254 260 17 311 317 330 336 326 318 314 300 270 247 233 233 240 250 255 253 250 251 258 260 255 247 236 232 229 230 230 226 228 237 238 237 239 243 246 245 243 242 250 252 251 250 251 253 244 258 276 268 265 254 243 253
32 17 10 12 11 13 11 13 30 48 32 21 26 353 351 330 343 344 350 2 336 327 343 312 308 291 299 276 266 188 221 107 295 270 284 296 314 313 306 304 302 306 300 270 253 246 248 254 254 251 244 238 239 238 234 234 233 231 230 232 236 238 235 234 238 243 242 245 245 240 242 245 247 237 244 239 238 232 225 241 253 253 256 273 262
29 27 18 20 27 26 14 24 31 41 38 20 17 1 359 35 52 33 25 38 21 354 354 322 320 325 267 166 288 281 249 193 218 248 257 271 296 317 300 298 306 298 295 294 283 274 273 281 295 299 288 280 267 260 257 242 233 235 234 237 238 237 240 242 240 241 246 246 236 241 236 245 250 247 245 247 242 241 229 232 234 231 228 251 254
31 20 20 21 26 27 26 22 26 25 35 41 27 16 22 6 37 55 32 57 61 349 274 284 296 299 320 249 236 265 305 288 246 245 272 305 315 321 267 291 288 285 281 284 282 284 286 288 289 289 295 298 298 286 279 279 279 254 246 245 245 248 246 242 246 246 244 245 250 252 251 249 262 271 275 332 346 309 316 295 303 299 248 239 113
37 30 30 22 22 24 25 28 27 31 38 41 43 37 26 24 27 24 23 12 317 302 332 327 307 307 309 302 290 303 353 11 356 348 317 293 293 278 281 286 286 279 281 280 286 284 290 297 297 296 299 298 295 11 6 347 329 311 283 245 242 245 245 247 246 248 246 237 242 255 266 276 280 281 278 260 260 279 251 246 240 235 85 92 68
40 33 30 30 28 27 23 26 26 28 32 33 34 38 30 37 21 9 7 17 10 15 8 4 8 14 15 12 8 18 42 22 23 17 10 4 347 292 270 253 264 278 275 274 276 287 287 289 294 292 288 286 327 4 6 328 295 305 303 299 285 270 268 266 278 280 296 299 256 250 253 251 247 257 276 286 283 259 47 61 68 84 122 81 130
40 38 39 34 38 32 30 28 27 30 35 35 36 32 30 31 30 15 21 32 38 44 55 46 34 34 31 20 21 54 43 24 18 15 9 3 339 288 268 263 257 267 275 278 279 274 271 265 267 278 289 320 8 5 357 346 325 299 290 290 284 277 269 261 283 279 274 263 256 271 289 293 281 251 83 67 59 27 40 48 319 112 230 273 3
40 39 36 41 45 43 38 35 35 37 39 38 39 44 44 50 52 54 54 44 43 38 52 50 43 43 40 37 24 42 50 30 21 12 11 3 352 322 295 283 275 273 277 281 281 288 281 48 55 24 353 349 341 336 350 341 311 297 289 286 286 288 293 298 254 275 277 272 289 157 155 142 144 116 89 104 113 161 163 224 212 135 191 185 223
40 38 38 33 37 42 37 35 32 37 46 42 39 43 42 57 80 74 71 66 63 68 62 63 61 58 57 53 42 44 39 34 22 15 13 10 359 333 326 315 310 301 294 286 261 251 284 89 56 34 6 347 342 333 328 312 273 258 262 271 284 286 280 31 335 31 48 61 40 58 71 97 106 110 101 95 117 309 314 270 152 147 185 177 163
35 38 39 41 39 36 29 31 27 25 29 48 68 59 57 61 60 62 62 54 61 66 68 63 64 62 65 64 55 40 32 46 28 20 20 16 9 5 1 351 342 343 347 351 357 26 32 22 24 14 11 4 4 4 7 1 324 310 306 281 270 274 344 337 0 73 81 83 93 74 64 29 21 29 50 63 58 36 6 1 20 119 137 141 155
33 34 36 34 39 38 34 30 28 27 17 358 16 88 75 83 82 84 71 68 73 77 78 84 71 68 74 75 67 55 38 34 36 26 23 25 21 24 36 19 353 338 344 12 34 27 27 20 14 9 5 11 14 20 23 27 23 19 21 5 341 307 297 317 49 63 66 66 64 67 68 63 53 43 38 32 30 23 27 25 29 38 61 86 95
36 31 35 38 35 37 33 35 32 29 15 10 2 6 68 71 85 78 95 100 90 80 85 80 71 77 83 76 82 87 61 49 39 33 29 30 34 32 29 15 349 344 35 35 36 36 25 14 11 359 0 15 28 29 31 36 40 46 23 24 22 27 22 48 35 36 41 36 44 47 42 45 42 39 32 31 25 22 30 35 39 47 48 56 66
40 36 28 34 39 32 31 21 30 38 29 10 13 15 2 63 58 85 119 119 109 112 103 87 75 75 82 85 90 90 86 72 53 57 46 51 40 42 38 27 2 31 43 45 35 30 27 17 9 355 2 16 27 31 33 35 44 38 35 37 38 35 42 49 46 46 43 40 42 42 32 30 38 35 31 24 19 19 23 30 25 40 49 32 41
39 45 33 22 26 42 35 27 16 21 42 31 18 13 18 5 25 54 57 17 146 133 118 122 130 98 76 77 96 111 117 126 97 87 57 67 82 66 51 40 31 30 38 40 39 17 18 15 356 349 11 16 24 43 46 45 47 39 39 39 47 49 56 52 52 51 51 50 42 38 32 19 28 35 27 27 16 23 19 17 25 16 50 38 58
14 30 46 39 15 19 53 48 28 14 13 48 40 26 16 14 12 359 354 349 34 44 91 143 161 105 104 116 94 81 108 143 149 145 145 117 61 88 79 66 54 49 52 40 20 34 245 264 310 16 23 13 21 27 33 27 29 33 30 29 32 38 37 42 42 47 51 43 45 42 42 28 25 27 19 19 23 12 10 350 9 343 354 329 332
33 14 10 53 67 22 11 58 72 36 22 10 55 58 45 31 13 6 6 7 351 347 13 327 63 111 152 130 130 123 127 57 66 140 183 190 168 293 118 123 125 120 122 155 210 239 253 233 127 79 63 43 32 36 42 15 18 48 43 39 41 29 24 31 35 42 44 36 32 32 24 16 358 357 337 320 330 14 360 332 312 284 267 272 278
8 26 352 358 12 358 66 352 67 102 64 77 38 44 72 53 33 26 18 1 359 2 352 11 15 358 2 38 119 138 123 91 48 10 21 358 330 162 214 206 155 146 231 174 209 228 267 283 224 236 238 216 160 180 189 137 39 40 49 67 71 57 45 51 47 49 43 46 41 24 6 331 230 246 249 289 278 216 205 253 282 261 175 222 252
358 21 8 10 355 343 356 327 310 128 158 171 76 81 92 97 81 54 45 9 8 6 360 11 9 4 348 13 356 16 57 55 39 360 347 348 338 345 338 357 9 335 341 2 333 308 258 243 262 242 230 250 232 184 167 148 183 93 67 107 91 121 159 154 142 109 106 136 160 196 209 222 231 222 201 224 245 193 184 218 242 256 197 188 237
343 20 358 51 360 330 328 347 323 329 328 131 66 42 28 38 112 120 18 102 121 24 16 21 5 350 3 21 9 9 11 15 6 10 300 332 315 323 335 331 344 330 9 5 337 307 289 230 235 233 214 191 220 162 160 210 173 162 195 162 173 220 135 245 219 160 179 204 218 214 211 212 226 193 218 225 226 203 189 233 240 248 253 210 223
331 25 7 36 24 333 321 358 336 329 330 72 120 77 43 72 48 89 162 209 124 164 162 126 152 345 357 44 55 9 349 320 301 301 301 299 269 241 249 264 277 281 304 318 298 294 285 291 261 264 268 204 166 183 203 190 169 178 165 174 236 214 137 192 237 214 137 220 263 266 238 241 249 220 227 229 198 201 187 200 231 222 251 259 261
341 353 8 15 356 315 308 335 353 313 327 330 133 143 134 99 62 53 52 84 33 338 302 287 194 186 168 22 17 172 244 256 283 299 311 300 292 282 271 263 267 270 292 333 321 291 295 251 221 220 227 201 189 201 204 190 181 187 163 181 182 162 198 223 189 152 177 236 240 238 234 219 244 254 279 338 315 205 167 205 222 241 243 256 272
331 336 354 18 333 323 310 313 319 317 307 333 326 216 169 152 120 50 119 120 328 259 271 282 279 256 206 185 207 246 219 240 269 284 284 287 282 282 279 276 268 264 246 195 273 284 274 283 248 225 223 210 203 196 217 218 199 174 176 157 166 187 188 169 157 188 208 204 231 238 267 259 237 76 345 245 245 277 181 203 231 241 242 251 235
321 282 263 4 330 302 300 295 305 315 320 330 318 334 317 245 169 196 281 187 217 228 246 255 261 272 266 228 203 196 224 274 290 289 277 273 279 279 284 283 270 240 145 221 246 270 275 276 282 276 307 350 125 201 234 270 330 204 114 141 154 166 141 153 167 212 218 221 183 218 216 227 276 238 212 213 225 284 293 273 253 222 325 327 334
310 291 308 355 289 286 286 320 324 312 319 318 292 304 300 303 314 317 175 198 261 271 261 247 241 255 269 259 234 214 233 244 261 282 294 289 278 279 284 287 288 231 188 237 252 267 272 273 260 273 307 313 327 1 355 13 355 352 32 25 1 144 165 175 198 213 212 210 192 208 184 187 198 245 192 266 200 222 228 253 256 79 23 9 359
289 280 222 247 266 265 303 349 339 335 331 313 303 303 326 325 312 289 285 219 196 200 204 223 232 218 232 244 245 233 226 239 259 268 282 289 294 304 322 297 296 279 178 234 235 257 279 277 297 326 334 316 337 353 7 24 4 357 348 355 336 115 165 196 217 2 350 333 155 175 180 172 234 237 190 215 210 258 235 234 200 133 140 154 239
291 298 295 208 231 266 23 327 339 311 300 307 311 311 300 287 276 270 251 266 281 242 186 192 193 209 225 248 247 222 225 237 251 268 275 287 288 323 332 301 307 332 326 285 196 210 254 305 357 356 356 350 344 2 40 1 34 359 351 343 351 353 27 23 19 17 317 312 281 204 222 224 221 229 175 104 69 336 298 284 177 179 149 165 39
290 292 289 299 284 14 353 313 286 289 295 295 290 282 277 273 273 273 277 266 245 273 293 150 175 201 224 245 237 226 236 244 251 260 270 270 279 304 280 284 294 323 315 347 352 356 343 345 354 355 356 354 349 348 347 329 318 293 303 295 309 340 66 14 349 12 326 303 306 304 236 290 304 285 214 286 208 242 265 23 350 358 162 136 172
265 273 282 273 278 254 255 271 286 298 289 279 273 269 257 252 254 270 288 293 303 294 277 268 210 188 204 220 156 161 224 235 284 325 315 294 277 261 263 275 323 315 338 345 352 347 339 345 353 355 355 355 350 348 349 355 6 9 6 350 350 353 322 311 176 237 254 307 327 333 346 359 3 360 356 343 307 324 15 352 308 338 223 241 264
253 250 243 242 237 256 274 291 279 286 291 291 289 290 291 286 282 277 271 267 273 267 265 259 243 236 208 113 132 173 12 25 11 338 322 314 307 299 346 353 316 327 340 336 348 349 353 347 350 358 360 354 347 347 353 358 2 359 352 350 356 356 13 28 11 3 351 342 326 351 1 352 358 355 351 354 356 347 333 324 32 52 16 1 304
276 272 228 197 182 197 215 221 238 266 265 268 263 265 278 289 295 291 281 274 266 274 292 292 314 338 90 114 57 19 22 16 348 308 299 299 290 322 348 331 348 354 336 322 356 13 359 348 356 3 354 346 347 352 359 357 355 350 346 354 347 353 360 9 6 5 10 25 16 18 10 7 357 356 352 20 2 344 342 330 316 324 299 241 273
258 267 183 170 218 210 222 244 238 233 247 259 296 310 301 298 290 284 294 301 287 280 270 280 300 38 85 86 92 82 34 338 320 305 287 271 289 312 331 354 6 334 310 359 25 7 348 355 9 357 347 350 358 355 351 349 349 349 346 339 350 357 357 0 3 359 12 15 16 10 359 351 346 350 339 323 323 321 312 318 324 324 321 314 312
250 255 246 217 208 218 252 251 255 244 218 221 228 227 240 250 260 304 321 312 313 320 311 293 302 99 136 137 139 129 165 279 300 288 270 306 342 3 358 342 316 310 25 30 9 344 5 21 1 349 346 1 354 346 350 345 348 340 337 346 346 355 357 355 15 21 17 4 0 352 344 338 332 329 323 328 323 318 322 321 315 309 310 308 299
249 253 250 246 242 241 243 253 270 280 280 272 265 260 259 267 295 292 279 271 268 270 281 293 289 246 153 187 180 183 223 262 262 271 348 8 349 324 322 331 315 17 47 21 354 1 38 14 354 348 2 350 343 345 350 336 338 338 334 332 339 353 18 31 19 15 6 358 346 338 332 330 332 332 330 325 315 307 298 296 292 294 290 293 291
305 297 282 251 250 252 259 268 267 262 267 268 87 105 134 305 288 284 279 274 268 268 266 275 318 32 125 205 216 231 248 273 349 4 4 333 313 332 338 313 348 51 42 18 350 19 26 9 346 3 355 344 342 350 339 339 341 331 316 316 15 42 34 29 20 9 354 345 338 338 341 342 341 337 332 328 332 336 336 334 330 321 311 295 289
255 264 269 263 248 240 242 244 253 255 249 232 205 200 198 208 230 245 249 252 258 289 18 18 355 328 298 295 251 265 335 353 352 6 333 334 334 314 295 332 18 70 36 12 3 16 0 342 341 357 356 346 352 344 342 336 325 308 337 33 50 44 36 22 8 352 345 354 356 348 340 338 331 325 319 315 320 319 313 314 316 322 326 328 323
252 262 264 271 272 271 261 261 261 265 265 255 241 238 240 229 214 223 233 241 206 143 139 64 315 293 312 321 345 344 329 352 358 307 317 330 322 323 324 305 8 56 47 1 18 9 352 318 321 343 9 347 348 346 329 314 310 13 57 51 53 54 32 13 354 4 13 2 345 333 322 316 308 303 296 291 288 306 345 345 345 341 333 321 321
276 276 279 279 273 264 276 280 270 265 269 259 246 236 213 221 233 226 218 161 138 133 112 203 273 322 7 344 334 303 310 317 299 327 326 319 310 308 335 12 12 349 339 62 43 347 308 306 330 346 321 341 349 328 312 323 327 60 63 60 64 52 35 6 23 31 11 344 324 315 313 312 308 305 299 315 340 340 355 351 351 347 344 340 349
292 287 277 268 259 257 254 265 274 262 250 252 251 236 199 150 28 336 315 207 128 141 175 171 94 17 335 304 296 318 325 307 300 308 309 291 306 351 360 355 341 341 354 23 343 316 302 332 332 310 279 287 312 288 297 321 345 84 89 77 65 75 63 63 57 46 12 329 320 320 321 314 311 309 315 322 327 327 333 7 14 5 342 332 326
298 301 299 294 287 271 248 244 248 263 257 209 204 224 244 275 211 207 249 240 214 186 138 158 206 186 192 213 234 264 268 252 266 301 302 310 339 346 336 315 321 318 327 335 340 298 335 344 332 305 295 265 244 268 306 299 62 106 108 114 119 108 88 83 81 52 16 351 337 324 317 316 314 320 333 348 4 20 23 7 357 346 330 322 326
301 295 290 294 285 272 265 268 265 263 283 326 313 246 222 235 251 240 242 253 193 147 146 110 132 186 240 12 14 337 333 344 345 330 348 348 330 305 291 290 283 316 334 317 299 341 352 312 286 277 280 308 306 303 291 328 109 131 124 131 126 89 80 75 62 47 40 3 342 324 318 312 324 351 353 14 356 3 11 354 349 345 342 335 322
288 287 286 285 284 278 273 271 269 266 258 241 205 178 244 219 235 210 156 114 70 42 50 51 39 39 31 16 357 341 334 332 332 332 320 305 298 296 289 309 339 325 290 304 332 334 292 279 289 319 323 326 313 312 303 87 122 111 119 120 103 83 78 70 58 33 33 27 352 337 318 322 344 1 355 30 9 355 349 344 342 344 340 339 335